Wind_Speed
6 6 6 6 5 5 5 5 6 7 7 7 6 6 6 6 5 5 5 5 5 4 4 3 3 3 4 4 5 5 4 4 4 4 4 4 4 5 5 5 4 4 4 4 4 4 5 5 4
6 6 6 6 6 5 5 5 6 7 7 7 6 6 7 6 5 5 5 5 6 5 4 4 3 3 3 3 3 3 3 3 4 4 3 4 4 4 4 4 3 3 3 3 4 4 4 4 4
5 5 5 6 6 5 5 5 6 6 7 7 6 6 6 6 5 5 5 5 5 5 4 5 4 3 2 2 2 3 3 3 3 3 3 3 3 4 3 3 3 2 3 3 4 4 4 4 4
5 5 6 6 6 6 6 6 6 6 6 7 7 6 6 6 6 6 5 6 5 5 5 4 4 3 2 1 1 1 1 2 3 3 3 3 3 3 3 3 3 2 3 4 4 5 5 5 5
5 5 5 5 5 6 6 6 6 7 6 7 7 6 6 6 6 7 6 6 6 6 6 5 4 3 2 2 1 0 1 1 1 2 2 2 2 2 2 2 3 3 3 4 5 5 5 5 5
5 5 5 4 4 5 6 6 7 7 6 7 7 7 7 7 7 7 7 7 7 7 6 6 5 4 3 2 1 1 2 1 1 1 1 1 1 2 2 3 3 4 4 5 5 5 6 6 6
6 6 5 5 5 5 5 7 7 8 7 7 7 7 7 7 7 8 8 8 8 7 6 7 6 5 4 3 2 2 2 2 1 0 1 1 1 2 2 3 4 4 5 5 6 6 7 7 7
5 6 5 5 6 6 6 7 7 7 7 7 6 6 7 8 9 9 9 9 9 8 7 7 5 5 5 4 3 3 2 2 2 1 1 1 1 1 2 3 4 5 5 6 6 7 7 7 8
6 5 6 6 6 6 7 7 7 7 7 7 7 7 7 8 9 10 10 10 9 9 8 7 6 6 5 5 4 4 3 2 2 2 2 2 2 2 2 3 4 5 6 6 6 7 8 8 8
6 6 6 6 6 6 6 7 7 7 7 7 7 8 8 8 8 10 11 11 10 9 9 7 7 6 6 5 5 5 4 3 2 2 2 2 2 2 3 4 4 5 5 6 7 7 8 8 8
6 6 6 6 7 7 7 7 7 7 7 8 8 8 8 8 9 10 11 10 10 10 9 8 8 7 7 6 6 5 4 4 4 3 3 2 2 2 3 4 4 5 5 6 7 7 7 8 8
5 6 6 6 6 7 7 7 7 8 8 7 8 8 8 9 9 10 10 10 10 10 10 10 9 8 7 7 6 6 5 4 4 4 4 3 3 2 3 4 5 5 6 6 7 7 8 8 8
5 6 6 6 6 6 7 7 7 8 8 8 8 8 8 8 8 10 10 10 10 10 10 10 9 8 8 8 7 6 5 5 4 5 4 4 3 3 4 4 5 6 6 7 7 7 8 8 8
6 6 6 6 6 6 6 7 7 7 7 8 8 7 7 8 9 9 10 10 10 10 10 9 8 8 9 9 8 7 6 6 5 5 5 4 4 4 4 5 5 5 6 7 7 7 7 7 8
7 7 6 6 6 5 6 6 7 8 8 8 8 7 7 8 9 9 10 10 10 10 10 10 9 9 9 9 9 8 7 6 5 5 5 4 4 4 4 5 5 5 6 6 6 7 7 7 7
8 7 7 6 6 6 6 6 7 8 8 8 8 8 8 8 9 9 9 10 11 10 10 10 10 10 10 9 9 8 7 6 6 5 4 4 4 4 5 5 5 6 6 6 7 7 7 7 7
8 8 7 7 7 7 7 6 6 8 8 8 9 9 9 8 9 9 9 10 10 10 10 10 10 10 9 9 8 8 8 7 7 6 5 4 4 4 5 5 5 6 6 6 7 7 7 7 8
9 9 8 8 7 7 7 7 8 8 9 9 10 10 9 9 9 9 9 10 10 10 10 10 10 10 9 9 9 9 8 7 7 7 6 5 5 4 5 5 5 5 6 7 7 8 8 8 8
9 9 8 8 8 7 7 8 9 9 9 9 10 11 10 10 10 10 9 10 10 10 10 10 9 10 10 10 9 9 8 8 7 7 6 5 5 5 5 4 5 5 6 7 7 8 8 8 8
9 9 8 9 8 8 8 8 9 10 10 9 10 10 11 11 10 10 10 10 9 10 10 10 10 9 9 9 8 9 8 8 8 7 7 6 6 6 6 5 5 6 6 7 7 8 8 8 8
10 10 9 9 9 8 9 9 9 10 10 10 10 10 11 11 11 11 11 10 10 10 11 11 10 10 9 9 9 9 9 8 8 7 7 6 5 6 6 6 6 7 7 7 7 8 8 8 8
11 10 10 9 9 9 8 9 9 10 9 10 10 10 10 11 11 10 10 10 10 11 11 11 10 10 10 10 10 9 9 9 9 8 7 6 6 6 6 6 6 7 7 7 7 7 7 7 8
11 11 10 10 10 10 9 9 8 9 9 9 9 10 10 10 10 10 11 11 11 11 11 11 11 10 11 10 10 10 10 10 9 9 8 7 6 6 6 6 6 7 7 7 7 7 7 8 8
11 11 11 11 11 10 9 9 8 9 9 10 9 9 10 10 10 10 11 11 11 11 11 11 11 11 10 10 10 11 11 10 10 9 8 8 7 7 6 6 6 6 7 7 7 7 7 8 8
12 12 11 11 11 10 9 9 7 8 9 10 10 10 10 11 11 11 11 12 12 12 12 12 12 11 11 11 12 11 11 11 11 10 9 9 8 8 7 7 7 7 7 7 8 8 8 8 8
13 13 12 12 11 10 9 9 7 8 8 9 10 10 10 10 11 12 12 12 12 13 13 13 13 13 12 12 12 12 12 12 12 12 10 9 9 9 8 8 8 8 8 8 8 8 9 9 9
14 14 13 13 12 11 10 8 8 8 8 8 9 9 8 9 11 12 12 12 12 13 13 13 13 13 12 13 13 13 13 12 13 12 11 10 9 8 9 9 9 9 9 9 9 9 9 9 9
15 15 15 14 13 12 11 9 8 8 9 9 9 9 9 10 10 11 11 12 12 12 12 12 12 13 12 13 13 13 13 13 13 13 12 11 10 10 9 9 9 10 10 10 10 10 10 10 10
16 16 16 15 15 14 12 10 9 9 10 10 10 10 10 10 10 10 11 11 11 12 12 12 12 12 12 12 13 13 13 13 13 12 12 12 11 11 11 10 10 11 11 11 11 11 11 11 11
17 17 17 17 16 15 13 11 11 11 10 11 11 10 11 11 11 11 11 11 11 12 12 12 12 12 12 13 13 13 13 13 13 13 13 12 12 11 11 11 11 11 11 11 11 11 12 12 12
Wind_Direction
204 204 210 218 222 216 213 207 206 202 198 197 193 190 194 198 194 191 184 179 170 164 159 151 136 109 100 90 87 83 82 75 69 70 65 56 50 53 52 52 56 52 44 38 35 34 33 32 29
207 205 214 221 220 220 217 214 208 206 203 202 204 203 204 202 198 190 181 177 180 178 180 173 160 139 113 89 81 86 82 72 64 68 61 47 46 50 48 43 46 45 34 28 24 21 18 16 11
210 211 218 221 221 217 213 213 206 203 208 211 210 210 207 201 202 201 197 188 187 190 187 184 170 151 129 98 92 89 86 70 60 61 53 43 43 45 36 32 32 29 24 16 11 6 2 356 350
215 216 223 223 224 219 219 206 207 202 208 216 216 212 208 200 201 206 206 197 200 201 193 184 170 162 160 150 117 102 90 77 63 57 51 46 43 39 28 27 30 22 14 6 0 355 351 347 341
225 224 223 224 223 222 227 214 204 203 212 219 216 212 208 204 199 203 204 199 200 196 196 195 186 178 174 178 177 202 156 111 66 53 48 46 45 40 28 18 11 6 1 355 348 345 340 337 331
226 226 222 227 222 227 223 217 209 208 213 216 214 215 210 205 203 204 202 201 199 196 200 199 195 198 197 188 194 194 180 175 99 61 51 35 32 22 8 1 350 347 349 347 342 336 332 331 328
222 226 226 228 228 232 227 219 210 210 218 219 215 213 210 207 207 205 202 202 200 201 202 199 204 211 211 212 223 216 196 204 218 321 13 19 9 8 355 351 339 332 332 332 333 331 329 326 323
223 229 231 227 231 231 224 214 213 217 219 217 214 217 216 209 206 205 207 207 207 207 211 207 208 213 214 217 211 204 205 216 234 255 308 315 317 330 329 333 330 323 320 321 325 328 327 325 322
222 220 225 223 222 223 216 207 213 218 217 214 215 218 218 214 206 207 210 211 211 212 213 212 212 220 221 214 208 206 217 220 231 242 261 279 284 306 318 321 326 324 320 319 323 325 324 322 320
224 221 222 222 220 221 216 210 211 216 214 215 217 215 216 214 212 211 212 217 218 218 216 214 218 221 221 215 213 217 230 229 231 240 253 270 282 304 318 322 328 330 328 325 325 326 324 320 318
223 224 224 221 222 224 223 218 217 218 216 217 219 217 217 216 214 214 215 218 221 221 222 223 217 220 220 212 213 223 238 249 260 254 256 268 285 300 312 319 329 330 328 326 328 327 326 323 320
219 225 228 224 225 230 227 223 221 219 219 219 221 220 219 218 216 214 215 218 218 221 222 225 220 222 221 219 222 230 236 246 252 249 255 260 274 290 305 312 322 325 327 327 327 328 326 326 322
219 227 229 229 232 231 228 225 223 221 221 220 220 221 216 216 215 216 217 218 218 218 217 223 220 222 222 220 224 231 235 240 246 247 253 256 270 290 304 311 321 323 326 327 329 329 330 330 329
216 222 224 224 226 230 229 225 222 224 222 219 216 215 212 212 213 214 215 216 215 216 222 222 220 221 219 218 222 229 236 239 249 250 249 254 266 282 293 304 314 320 325 327 329 332 331 331 332
217 220 221 222 224 223 223 224 224 221 218 214 213 212 216 216 210 211 215 218 218 222 224 224 219 219 220 221 225 229 232 239 247 246 252 255 259 272 289 302 309 318 324 328 331 333 331 333 334
220 224 229 230 232 232 229 228 224 222 218 213 212 215 216 215 213 214 216 218 219 222 226 222 217 218 221 222 223 226 226 233 237 241 249 256 265 274 287 300 310 315 320 327 332 333 331 331 334
226 228 231 232 233 233 230 231 226 222 217 213 211 214 216 215 215 218 219 217 217 219 220 217 215 217 219 221 223 227 229 231 234 236 240 256 272 283 291 299 305 312 318 324 330 333 334 333 334
233 230 231 233 231 230 229 231 229 225 221 219 215 216 219 218 219 220 219 217 215 215 212 215 220 219 218 219 223 227 231 231 233 234 241 255 268 280 291 301 309 314 318 322 327 332 333 333 331
234 232 233 237 234 234 231 232 231 227 225 221 220 218 221 224 222 221 218 215 212 212 211 215 217 216 216 221 222 226 227 228 230 232 239 251 264 275 288 299 304 308 314 321 326 330 331 331 330
234 233 235 236 236 236 235 236 238 231 229 226 225 224 224 228 225 221 217 215 212 213 213 217 220 217 215 219 221 224 225 225 229 230 237 248 261 276 285 290 300 303 308 315 322 329 330 330 331
236 235 236 241 246 246 244 241 240 235 235 231 229 228 228 229 226 221 220 219 215 214 214 219 223 222 222 220 222 225 227 228 228 231 238 246 257 273 283 286 290 295 298 306 316 326 330 330 331
235 237 240 245 245 246 247 245 241 237 237 234 232 229 230 231 232 224 220 222 219 216 216 221 222 225 224 223 227 227 227 229 232 235 240 249 261 274 282 287 287 291 299 302 309 319 326 329 331
234 236 240 243 244 247 248 250 239 239 237 235 232 230 231 233 233 226 221 222 221 219 219 222 224 227 227 228 232 232 230 230 234 237 241 249 260 271 280 288 290 292 299 303 305 312 320 326 328
235 238 242 242 244 246 248 250 238 241 236 234 231 231 231 234 234 228 224 223 224 221 219 221 224 227 228 230 230 234 236 232 235 239 243 252 261 267 278 286 289 293 299 302 309 313 316 325 328
235 237 238 241 245 250 250 250 244 244 238 235 232 233 234 236 236 231 228 227 226 225 224 226 226 227 230 232 232 239 239 238 239 240 245 252 261 266 272 282 288 292 298 301 302 307 312 317 323
236 237 241 246 249 249 248 248 242 243 238 236 233 233 236 238 237 233 232 230 229 230 230 229 230 231 234 235 235 239 241 241 243 244 248 253 260 265 269 279 284 289 292 296 302 305 307 308 315
235 238 241 246 249 248 247 245 242 240 240 236 234 234 237 239 237 232 231 230 230 232 232 231 231 231 234 236 237 240 242 242 243 246 250 254 261 264 271 278 284 287 288 293 299 305 306 307 311
236 237 239 244 247 247 245 246 246 245 242 239 240 239 241 240 238 236 234 231 231 232 232 230 231 233 237 238 240 241 243 243 243 246 248 254 259 263 270 278 285 287 287 292 298 304 306 307 308
236 238 241 243 246 249 247 244 246 246 244 243 242 243 243 242 239 237 237 235 233 232 233 233 232 235 239 241 243 244 245 246 246 247 248 253 257 265 271 276 283 287 289 293 297 301 304 305 305
237 239 240 243 246 248 248 242 243 245 244 246 246 243 243 244 242 240 240 240 237 237 237 238 236 238 242 243 245 246 246 246 246 247 250 254 260 264 267 274 281 287 291 294 297 300 302 302 302
Height
5862 5863 5865 5866 5868 5869 5869 5870 5871 5872 5873 5874 5875 5876 5877 5879 5881 5884 5882 5882 5883 5884 5885 5886 5886 5887 5888 5888 5889 5889 5889 5889 5890 5890 5890 5890 5890 5890 5890 5890 5890 5890 5890 5890 5890 5890 5890 5889 5889
5862 5863 5865 5866 5867 5868 5869 5870 5871 5872 5873 5874 5875 5876 5877 5878 5879 5881 5881 5882 5883 5885 5885 5886 5887 5887 5888 5889 5889 5890 5890 5890 5890 5890 5891 5891 5891 5891 5891 5891 5891 5891 5891 5891 5890 5890 5890 5889 5889
5861 5863 5865 5866 5866 5868 5869 5869 5870 5871 5872 5873 5874 5875 5877 5878 5879 5880 5881 5882 5883 5885 5886 5886 5887 5888 5889 5889 5890 5890 5890 5891 5891 5891 5891 5891 5891 5891 5891 5891 5891 5891 5891 5891 5890 5890 5890 5889 5889
5861 5863 5865 5866 5866 5867 5868 5869 5870 5871 5872 5873 5874 5875 5876 5877 5879 5880 5881 5882 5883 5884 5886 5886 5887 5888 5889 5889 5890 5890 5891 5891 5891 5891 5891 5892 5892 5892 5892 5892 5891 5891 5891 5891 5891 5890 5890 5889 5889
5861 5863 5864 5864 5865 5866 5867 5868 5869 5870 5871 5872 5874 5874 5875 5877 5878 5879 5880 5882 5883 5884 5886 5886 5887 5888 5889 5890 5890 5890 5891 5891 5891 5892 5892 5892 5892 5892 5892 5892 5892 5891 5891 5891 5891 5890 5889 5889 5888
5861 5862 5863 5864 5865 5865 5866 5867 5869 5870 5871 5872 5873 5874 5875 5876 5877 5879 5880 5881 5883 5884 5885 5886 5887 5888 5889 5890 5890 5890 5891 5891 5892 5892 5892 5892 5892 5892 5892 5892 5892 5891 5891 5891 5890 5890 5889 5888 5888
5861 5862 5862 5863 5864 5865 5866 5867 5868 5869 5870 5871 5872 5873 5874 5875 5877 5878 5879 5881 5882 5884 5885 5886 5887 5888 5888 5889 5890 5890 5891 5891 5891 5892 5892 5892 5892 5892 5892 5891 5891 5891 5891 5890 5890 5889 5888 5887 5886
5860 5862 5861 5862 5863 5865 5865 5866 5867 5868 5869 5871 5872 5873 5873 5875 5876 5877 5879 5880 5882 5883 5884 5885 5886 5887 5888 5889 5889 5890 5890 5891 5891 5891 5891 5892 5892 5892 5892 5891 5891 5890 5890 5889 5889 5888 5887 5886 5885
5859 5861 5861 5862 5863 5864 5864 5865 5866 5867 5868 5870 5871 5872 5873 5874 5875 5876 5878 5879 5881 5882 5883 5885 5886 5886 5887 5888 5889 5889 5890 5890 5891 5891 5891 5891 5891 5891 5891 5891 5890 5890 5889 5889 5888 5887 5886 5885 5884
5858 5860 5861 5862 5862 5863 5864 5865 5866 5867 5867 5868 5870 5871 5872 5873 5874 5875 5877 5878 5880 5881 5883 5884 5885 5886 5886 5887 5888 5889 5889 5889 5890 5890 5891 5891 5891 5891 5891 5890 5890 5889 5889 5888 5887 5886 5885 5884 5883
5857 5859 5860 5861 5861 5862 5863 5864 5865 5866 5867 5868 5869 5870 5870 5872 5873 5874 5876 5877 5879 5880 5881 5882 5884 5885 5886 5887 5888 5888 5889 5889 5890 5890 5890 5890 5890 5890 5890 5890 5889 5889 5888 5887 5886 5885 5884 5883 5881
5857 5858 5859 5860 5860 5861 5862 5863 5864 5865 5866 5867 5868 5868 5869 5871 5872 5873 5875 5876 5877 5879 5880 5881 5883 5884 5885 5886 5887 5888 5888 5888 5889 5889 5890 5890 5890 5890 5890 5889 5888 5888 5887 5886 5885 5884 5883 5882 5880
5856 5857 5858 5859 5859 5860 5861 5862 5863 5864 5864 5865 5866 5867 5869 5870 5871 5872 5873 5875 5876 5877 5879 5880 5881 5883 5884 5885 5886 5887 5887 5888 5888 5889 5889 5889 5889 5889 5889 5888 5888 5887 5886 5885 5884 5883 5882 5881 5879
5855 5856 5857 5858 5859 5859 5860 5861 5862 5863 5863 5864 5865 5867 5868 5869 5870 5871 5872 5873 5875 5876 5878 5879 5880 5881 5883 5884 5885 5886 5887 5887 5887 5888 5888 5888 5888 5888 5888 5888 5887 5886 5885 5884 5883 5882 5881 5880 5878
5855 5856 5857 5857 5858 5859 5860 5861 5861 5862 5863 5864 5865 5866 5867 5868 5869 5870 5871 5872 5874 5875 5876 5877 5879 5880 5882 5883 5884 5885 5886 5886 5887 5887 5887 5887 5887 5887 5887 5887 5886 5886 5885 5884 5882 5881 5880 5879 5878
5854 5856 5856 5857 5857 5858 5860 5860 5860 5861 5862 5863 5864 5865 5866 5867 5868 5869 5870 5871 5873 5874 5875 5876 5877 5879 5880 5882 5883 5884 5885 5885 5886 5886 5887 5887 5887 5886 5886 5886 5885 5885 5884 5883 5882 5880 5879 5878 5877
5853 5854 5855 5856 5856 5857 5859 5859 5860 5860 5861 5862 5863 5864 5865 5866 5867 5868 5869 5870 5871 5872 5874 5875 5876 5878 5879 5880 5882 5883 5884 5884 5885 5886 5886 5886 5886 5886 5885 5885 5884 5884 5883 5882 5881 5879 5878 5877 5875
5852 5853 5854 5855 5855 5856 5857 5858 5858 5859 5860 5861 5862 5863 5864 5865 5866 5867 5868 5869 5870 5871 5872 5874 5875 5876 5878 5879 5880 5882 5883 5884 5884 5885 5885 5885 5885 5885 5885 5884 5883 5883 5882 5881 5880 5878 5877 5876 5874
5851 5852 5853 5854 5854 5855 5856 5856 5857 5858 5859 5860 5861 5861 5863 5864 5865 5866 5867 5867 5869 5870 5871 5873 5874 5875 5876 5878 5879 5880 5882 5882 5883 5884 5884 5884 5884 5884 5884 5883 5883 5882 5881 5880 5879 5878 5876 5875 5873
5850 5851 5852 5852 5853 5854 5854 5855 5856 5856 5857 5858 5859 5860 5861 5862 5863 5864 5865 5866 5867 5868 5870 5871 5873 5874 5875 5877 5878 5879 5880 5881 5882 5882 5883 5883 5883 5883 5883 5882 5882 5881 5880 5879 5878 5877 5875 5874 5872
5848 5850 5851 5851 5852 5852 5853 5855 5855 5855 5856 5857 5858 5859 5860 5861 5862 5863 5864 5865 5866 5867 5868 5870 5872 5873 5874 5875 5876 5878 5879 5880 5881 5881 5882 5882 5882 5882 5881 5881 5881 5880 5879 5878 5877 5876 5875 5873 5872
5847 5848 5849 5850 5851 5851 5853 5853 5854 5854 5854 5855 5857 5857 5858 5859 5860 5861 5862 5864 5865 5866 5867 5869 5870 5872 5873 5874 5875 5876 5877 5878 5879 5880 5880 5881 5881 5880 5880 5880 5879 5879 5878 5877 5876 5875 5874 5872 5871
5845 5846 5847 5848 5849 5850 5851 5852 5853 5852 5853 5854 5855 5856 5857 5858 5859 5860 5861 5862 5863 5865 5866 5867 5869 5870 5871 5872 5873 5874 5875 5876 5877 5878 5879 5879 5879 5879 5879 5878 5878 5877 5877 5876 5875 5874 5873 5871 5870
5844 5845 5845 5846 5847 5849 5849 5850 5851 5851 5851 5852 5854 5854 5855 5856 5857 5858 5859 5861 5862 5863 5865 5866 5867 5868 5869 5870 5871 5872 5873 5874 5875 5876 5877 5877 5878 5877 5877 5877 5877 5876 5875 5875 5874 5872 5871 5870 5869
5842 5843 5844 5844 5845 5847 5848 5848 5850 5849 5850 5850 5852 5853 5854 5854 5855 5856 5858 5859 5860 5862 5863 5864 5865 5866 5868 5869 5870 5871 5872 5873 5874 5874 5875 5876 5876 5876 5876 5876 5875 5875 5874 5873 5872 5871 5870 5869 5867
5839 5841 5843 5843 5844 5845 5846 5846 5849 5848 5848 5849 5850 5851 5852 5853 5853 5854 5856 5857 5858 5860 5861 5862 5863 5864 5866 5867 5868 5869 5870 5871 5872 5872 5873 5873 5874 5874 5874 5874 5873 5873 5872 5871 5870 5869 5868 5867 5866
5836 5838 5840 5841 5842 5843 5844 5845 5847 5847 5847 5847 5848 5849 5850 5851 5851 5852 5853 5855 5856 5857 5859 5860 5861 5862 5863 5864 5866 5867 5868 5868 5869 5870 5871 5871 5872 5872 5872 5872 5871 5871 5870 5869 5868 5867 5866 5865 5864
5834 5835 5837 5838 5839 5840 5842 5843 5845 5845 5845 5846 5847 5847 5848 5849 5849 5850 5851 5853 5854 5855 5856 5858 5859 5860 5861 5862 5863 5864 5865 5866 5867 5867 5868 5869 5869 5870 5870 5869 5869 5868 5868 5867 5866 5865 5864 5863 5862
5831 5832 5833 5835 5836 5838 5839 5843 5843 5843 5843 5844 5844 5845 5846 5847 5847 5848 5849 5850 5851 5853 5854 5855 5856 5858 5858 5860 5861 5862 5863 5863 5864 5865 5865 5866 5867 5867 5867 5867 5866 5866 5865 5865 5864 5863 5862 5861 5860
5827 5828 5830 5832 5834 5835 5837 5842 5840 5840 5841 5841 5842 5843 5844 5844 5845 5846 5847 5848 5849 5850 5852 5853 5854 5855 5856 5857 5858 5859 5860 5861 5861 5862 5863 5863 5864 5864 5864 5864 5864 5863 5863 5862 5861 5860 5859 5858 5857